| time (UTC) | temp C | wind direction | speed KPH | gust KPH | rain 1hr cm | rain 24hr cm | rain mn cm | humidity % | barometer mb |
| 20260507030123 | 10 | 0.0 | 0.0 | 0.15 | 1.02 | 1.02 | 91 | 1006.5 | |
| 20260507025606 | 10 | 0.0 | 0.0 | 0.15 | 0.99 | 0.99 | 91 | 1006.3 | |
| 20260507025106 | 11 | 0.0 | 0.0 | 0.18 | 0.97 | 0.97 | 91 | 1006.5 | |
| 20260507024602 | 11 | 0.0 | 0.0 | 0.18 | 0.94 | 0.94 | 91 | 1006.3 | |
| 20260507024100 | 11 | 0.0 | 0.0 | 0.15 | 0.91 | 0.91 | 91 | 1006.3 | |
| 20260507023548 | 11 | 0.0 | 0.0 | 0.15 | 0.91 | 0.91 | 91 | 1006.1 | |
| 20260507023313 | 11 | 0.0 | 0.0 | 0.15 | 0.91 | 0.91 | 91 | 1006.0 | |
| 20260507022511 | 11 | 0.0 | 0.0 | 0.13 | 0.89 | 0.89 | 91 | 1006.0 | |
| 20260507022007 | 11 | 0.0 | 0.0 | 0.13 | 0.89 | 0.89 | 91 | 1006.0 | |
| 20260507021449 | 12 | 0.0 | 0.0 | 0.15 | 0.89 | 0.89 | 91 | 1006.0 | |
| 20260507020945 | 12 | 0.0 | 0.0 | 0.15 | 0.89 | 0.89 | 91 | 1005.8 | |
| 20260507020702 | 12 | 0.0 | 0.0 | 0.18 | 0.89 | 0.89 | 91 | 1005.5 | |
| 20260507020142 | 12 | 0.0 | 0.0 | 0.15 | 0.86 | 0.86 | 91 | 1005.6 | |
| 20260507015412 | 12 | 0.0 | 0.0 | 0.15 | 0.84 | 0.84 | 91 | 1005.7 | |
| 20260507014904 | 12 | 0.0 | 0.0 | 0.10 | 0.79 | 0.79 | 91 | 1005.6 | |
| 20260507014358 | 12 | 0.0 | 0.0 | 0.15 | 0.76 | 0.76 | 91 | 1005.5 | |
| 20260507013838 | 13 | 0.0 | 0.0 | 0.20 | 0.76 | 0.76 | 91 | 1005.5 | |
| 20260507013320 | 13 | 0.0 | 0.0 | 0.20 | 0.76 | 0.76 | 91 | 1005.3 | |
| 20260507012814 | 13 | 0.0 | 0.0 | 0.20 | 0.76 | 0.76 | 91 | 1005.2 | |
| 20260507012306 | 13 | 0.0 | 0.0 | 0.20 | 0.76 | 0.76 | 91 | 1005.2 | |
| 20260507011803 | 13 | 0.0 | 0.0 | 0.18 | 0.74 | 0.74 | 91 | 1005.3 | |
| 20260507011758 | 13 | 0.0 | 0.0 | 0.20 | 0.76 | 0.76 | 91 | 1005.2 | |
| 20260507011013 | 13 | 0.0 | 0.0 | 0.20 | 0.74 | 0.74 | 91 | 1005.2 | |
| 20260507010236 | 14 | 0.0 | 0.0 | 0.18 | 0.71 | 0.71 | 92 | 1005.1 | |
| 20260507005720 | 14 | 0.0 | 0.0 | 0.18 | 0.71 | 0.71 | 92 | 1005.1 | |
| 20260507005438 | 14 | 0.0 | 0.0 | 0.15 | 0.69 | 0.69 | 92 | 1005.0 | |
| 20260507004708 | 15 | 0.0 | 0.0 | 0.13 | 0.66 | 0.69 | 92 | 1004.9 | |
| 20260507004148 | 15 | 0.0 | 0.0 | 0.05 | 0.58 | 0.58 | 93 | 1004.8 | |
| 20260507003637 | 15 | 0.0 | 0.0 | 0.03 | 0.56 | 0.56 | 93 | 1004.5 | |
| 20260507003129 | 15 | 0.0 | 0.0 | 0.03 | 0.56 | 0.56 | 93 | 1004.4 | |
| 20260507002622 | 15 | 0.0 | 0.0 | 0.03 | 0.56 | 0.56 | 93 | 1004.4 | |
| 20260507002347 | 15 | 0.0 | 0.0 | 0.03 | 0.56 | 0.56 | 93 | 1004.3 | |
| 20260507001610 | 15 | 0.0 | 0.0 | 0.03 | 0.56 | 0.56 | 93 | 1004.3 | |
| 20260507001100 | 15 | 0.0 | 0.0 | 0.03 | 0.56 | 0.56 | 93 | 1004.3 | |
| 20260507000836 | 15 | 0.0 | 0.0 | 0.00 | 0.53 | 0.53 | 92 | 1004.1 | |
| 20260507000046 | 15 | 0.0 | 0.0 | 0.00 | 0.53 | 0.53 | 92 | 1004.1 | |
| 20260506235532 | 15 | 0.0 | 0.0 | 0.00 | 0.53 | 0.53 | 92 | 1004.1 | |
| 20260506235004 | 15 | 0.0 | 0.0 | 0.00 | 0.53 | 0.53 | 92 | 1004.1 | |
| 20260506234501 | 15 | 0.0 | 0.0 | 0.00 | 0.53 | 0.53 | 92 | 1004.0 | |
| 20260506234004 | 15 | 0.0 | 0.0 | 0.00 | 0.53 | 0.53 | 92 | 1004.1 | |
| 20260506233500 | 15 | 0.0 | 0.0 | 0.00 | 0.56 | 0.53 | 92 | 1004.0 | |
| 20260506232947 | 15 | 0.0 | 0.0 | 0.00 | 0.56 | 0.53 | 92 | 1004.0 | |
| 20260506232434 | 15 | 0.0 | 0.0 | 0.00 | 0.56 | 0.53 | 92 | 1003.8 | |
| 20260506232409 | 15 | 0.0 | 0.0 | 0.00 | 0.58 | 0.53 | 92 | 1003.8 | |
| 20260506231406 | 15 | 0.0 | 0.0 | 0.00 | 0.61 | 0.53 | 92 | 1003.8 | |
| 20260506230905 | 15 | 0.0 | 0.0 | 0.00 | 0.61 | 0.53 | 92 | 1004.0 | |
| 20260506230404 | 15 | 0.0 | 0.0 | 0.00 | 0.64 | 0.53 | 92 | 1003.8 | |
| 20260506225857 | 15 | 0.0 | 0.0 | 0.00 | 0.64 | 0.53 | 92 | 1004.0 | |
| 20260506225624 | 15 | 0.0 | 0.0 | 0.00 | 0.64 | 0.53 | 92 | 1003.8 | |
| 20260506224847 | 15 | 0.0 | 0.0 | 0.00 | 0.64 | 0.53 | 92 | 1003.8 | |
| 20260506224342 | 15 | 0.0 | 0.0 | 0.00 | 0.64 | 0.53 | 92 | 1004.0 | |
| 20260506223835 | 15 | 0.0 | 0.0 | 0.00 | 0.64 | 0.53 | 92 | 1004.1 | |
| 20260506223322 | 15 | 0.0 | 0.0 | 0.00 | 0.64 | 0.53 | 92 | 1004.0 | |
| 20260506222803 | 15 | 0.0 | 0.0 | 0.00 | 0.64 | 0.53 | 92 | 1004.2 | |
| 20260506222305 | 15 | 0.0 | 0.0 | 0.00 | 0.64 | 0.53 | 92 | 1004.0 | |
| 20260506221804 | 15 | 0.0 | 0.0 | 0.00 | 0.64 | 0.53 | 93 | 1004.0 | |
| 20260506221245 | 15 | 0.0 | 0.0 | 0.00 | 0.64 | 0.53 | 92 | 1004.2 | |
| 20260506220744 | 15 | 0.0 | 0.0 | 0.00 | 0.64 | 0.53 | 92 | 1004.2 | |
| 20260506220237 | 15 | 0.0 | 0.0 | 0.00 | 0.64 | 0.53 | 93 | 1004.2 | |
| 20260506215723 | 16 | 0.0 | 0.0 | 0.03 | 0.64 | 0.53 | 93 | 1004.2 | |
| 20260506215216 | 16 | 0.0 | 0.0 | 0.03 | 0.64 | 0.53 | 93 | 1004.3 | |
| 20260506214718 | 16 | 0.0 | 0.0 | 0.03 | 0.64 | 0.53 | 93 | 1004.2 | |
| 20260506214440 | 16 | 0.0 | 0.0 | 0.03 | 0.64 | 0.53 | 93 | 1004.2 | |
| 20260506213705 | 16 | 0.0 | 0.0 | 0.03 | 0.64 | 0.53 | 93 | 1004.2 | |
| 20260506213145 | 16 | 0.0 | 0.0 | 0.03 | 0.64 | 0.53 | 93 | 1004.2 | |
| 20260506212627 | 16 | 0.0 | 0.0 | 0.03 | 0.64 | 0.53 | 93 | 1004.3 | |
| 20260506212114 | 16 | 0.0 | 0.0 | 0.03 | 0.64 | 0.53 | 93 | 1004.4 | |
| 20260506211614 | 16 | 0.0 | 0.0 | 0.03 | 0.64 | 0.53 | 93 | 1004.4 | |
| 20260506211105 | 16 | 0.0 | 0.0 | 0.03 | 0.64 | 0.53 | 93 | 1004.4 | |
| 20260506210837 | 16 | 0.0 | 0.0 | 0.05 | 0.64 | 0.53 | 93 | 1004.5 | |
| 20260506210336 | 16 | 0.0 | 0.0 | 0.05 | 0.64 | 0.53 | 93 | 1004.4 | |
| 20260506205819 | 16 | 0.0 | 0.0 | 0.05 | 0.61 | 0.51 | 93 | 1004.4 | |
| 20260506205039 | 16 | 0.0 | 0.0 | 0.08 | 0.61 | 0.51 | 93 | 1004.5 | |
| 20260506204540 | 16 | 0.0 | 0.0 | 0.08 | 0.61 | 0.51 | 93 | 1004.5 | |
| 20260506204032 | 16 | 0.0 | 0.0 | 0.08 | 0.61 | 0.51 | 93 | 1004.5 | |
| 20260506203530 | 16 | 0.0 | 0.0 | 0.10 | 0.61 | 0.51 | 93 | 1004.6 | |
| 20260506203023 | 16 | 0.0 | 0.0 | 0.13 | 0.61 | 0.51 | 93 | 1004.6 | |
| 20260506202514 | 16 | 0.0 | 0.0 | 0.15 | 0.61 | 0.51 | 93 | 1004.8 | |
| 20260506202006 | 16 | 0.0 | 0.0 | 0.15 | 0.61 | 0.51 | 93 | 1004.8 | |
| 20260506201505 | 16 | 0.0 | 0.0 | 0.15 | 0.61 | 0.51 | 93 | 1004.7 | |
| 20260506201227 | 16 | 0.0 | 0.0 | 0.18 | 0.58 | 0.48 | 93 | 1004.8 | |
| 20260506200952 | 16 | 0.0 | 0.0 | 0.18 | 0.61 | 0.51 | 93 | 1004.9 | |
| 20260506195936 | 16 | 0.0 | 0.0 | 0.18 | 0.58 | 0.48 | 93 | 1004.9 | |
| 20260506195434 | 15 | 0.0 | 0.0 | 0.15 | 0.56 | 0.46 | 93 | 1005.0 | |
| 20260506194930 | 15 | 0.0 | 0.0 | 0.13 | 0.53 | 0.43 | 93 | 1005.1 | |
| 20260506194638 | 15 | 0.0 | 0.0 | 0.15 | 0.53 | 0.43 | 93 | 1005.0 | |
| 20260506193903 | 15 | 0.0 | 0.0 | 0.13 | 0.51 | 0.43 | 93 | 1005.1 | |
| 20260506193403 | 15 | 0.0 | 0.0 | 0.13 | 0.48 | 0.41 | 92 | 1005.1 | |
| 20260506192851 | 15 | 0.0 | 0.0 | 0.13 | 0.48 | 0.38 | 93 | 1005.2 | |
| 20260506192345 | 15 | 0.0 | 0.0 | 0.10 | 0.46 | 0.36 | 93 | 1005.2 | |
| 20260506191834 | 15 | 0.0 | 0.0 | 0.13 | 0.46 | 0.36 | 93 | 1005.2 | |
| 20260506191330 | 15 | 0.0 | 0.0 | 0.13 | 0.46 | 0.36 | 92 | 1005.0 | |
| 20260506190822 | 15 | 0.0 | 0.0 | 0.13 | 0.43 | 0.33 | 92 | 1005.3 | |
| 20260506190314 | 15 | 0.0 | 0.0 | 0.13 | 0.41 | 0.30 | 92 | 1005.5 | |
| 20260506185809 | 15 | 0.0 | 0.0 | 0.15 | 0.41 | 0.30 | 92 | 1005.7 | |
| 20260506185534 | 15 | 0.0 | 0.0 | 0.18 | 0.41 | 0.30 | 92 | 1005.8 | |
| 20260506184755 | 15 | 0.0 | 0.0 | 0.18 | 0.38 | 0.28 | 92 | 1005.7 | |
| 20260506184248 | 16 | 0.0 | 0.0 | 0.20 | 0.38 | 0.28 | 92 | 1006.0 | |
| 20260506184013 | 16 | 0.0 | 0.0 | 0.18 | 0.36 | 0.25 | 92 | 1006.1 | |
| 20260506183214 | 16 | 0.0 | 0.0 | 0.20 | 0.36 | 0.25 | 92 | 1006.0 | |
| 20260506182711 | 16 | 0.0 | 0.0 | 0.23 | 0.36 | 0.25 | 91 | 1006.0 | |
| 20260506182203 | 16 | 0.0 | 0.0 | 0.23 | 0.36 | 0.25 | 91 | 1006.0 | |
| 20260506181705 | 16 | 0.0 | 0.0 | 0.23 | 0.33 | 0.23 | 91 | 1006.2 | |
| 20260506181154 | 16 | 0.0 | 0.0 | 0.23 | 0.33 | 0.23 | 91 | 1006.3 | |
| 20260506180652 | 16 | 0.0 | 0.0 | 0.20 | 0.30 | 0.20 | 90 | 1006.5 | |
| 20260506180148 | 16 | 0.0 | 0.0 | 0.18 | 0.28 | 0.18 | 89 | 1006.5 | |
| 20260506175638 | 16 | 0.0 | 0.0 | 0.15 | 0.25 | 0.15 | 89 | 1006.5 | |
| 20260506175128 | 16 | 0.0 | 0.0 | 0.13 | 0.23 | 0.13 | 87 | 1006.5 | |
| 20260506174618 | 16 | 0.0 | 0.0 | 0.10 | 0.20 | 0.10 | 87 | 1006.6 | |
| 20260506174107 | 16 | 0.0 | 0.0 | 0.08 | 0.18 | 0.08 | 87 | 1006.6 | |
| 20260506173606 | 16 | 0.0 | 0.0 | 0.05 | 0.15 | 0.08 | 85 | 1006.5 | |
| 20260506173056 | 17 | 0.0 | 0.0 | 0.05 | 0.15 | 0.05 | 84 | 1006.5 | |
| 20260506172548 | 17 | 0.0 | 0.0 | 0.03 | 0.13 | 0.03 | 82 | 1006.6 | |
| 20260506172307 | 17 | 0.0 | 0.0 | 0.03 | 0.13 | 0.03 | 80 | 1006.5 | |
| 20260506171520 | 18 | 0.0 | 0.0 | 0.00 | 0.10 | 0.00 | 79 | 1006.4 | |
| 20260506171014 | 18 | 0.0 | 0.0 | 0.00 | 0.10 | 0.00 | 76 | 1006.4 | |
| 20260506170505 | 18 | 0.0 | 0.0 | 0.00 | 0.10 | 0.00 | 74 | 1006.2 | |
| 20260506170007 | 18 | 0.0 | 0.0 | 0.00 | 0.10 | 0.00 | 72 | 1006.3 | |
| 20260506165733 | 19 | 0.0 | 0.0 | 0.00 | 0.10 | 0.00 | 73 | 1006.4 | |
| 20260506164956 | 19 | 0.0 | 0.0 | 0.00 | 0.10 | 0.00 | 71 | 1006.3 | |
| 20260506164452 | 19 | 0.0 | 0.0 | 0.00 | 0.10 | 0.00 | 72 | 1006.4 | |
| 20260506163946 | 19 | 0.0 | 0.0 | 0.00 | 0.10 | 0.00 | 70 | 1006.5 | |
| 20260506163443 | 19 | 0.0 | 0.0 | 0.00 | 0.10 | 0.00 | 70 | 1006.5 | |
| 20260506162919 | 19 | 0.0 | 0.0 | 0.00 | 0.10 | 0.00 | 73 | 1006.5 | |
| 20260506162417 | 19 | 0.0 | 0.0 | 0.00 | 0.10 | 0.00 | 73 | 1006.6 | |
| 20260506161906 | 19 | 0.0 | 0.0 | 0.00 | 0.10 | 0.00 | 75 | 1006.6 | |
| 20260506161404 | 18 | 0.0 | 0.0 | 0.00 | 0.10 | 0.00 | 75 | 1006.7 | |
| 20260506161135 | 18 | 0.0 | 0.0 | 0.00 | 0.10 | 0.00 | 78 | 1006.8 | |
| 20260506160352 | 18 | 0.0 | 0.0 | 0.00 | 0.10 | 0.00 | 77 | 1006.9 | |
| 20260506155845 | 18 | 0.0 | 0.0 | 0.00 | 0.10 | 0.00 | 78 | 1007.2 | |
| 20260506155340 | 18 | 0.0 | 0.0 | 0.00 | 0.10 | 0.00 | 77 | 1007.2 | |
| 20260506154831 | 18 | 0.0 | 0.0 | 0.00 | 0.10 | 0.00 | 78 | 1007.4 | |
| 20260506154325 | 18 | 0.0 | 0.0 | 0.00 | 0.10 | 0.00 | 76 | 1007.7 | |
| 20260506154051 | 18 | 0.0 | 0.0 | 0.00 | 0.10 | 0.00 | 75 | 1007.8 | |
| 20260506153257 | 18 | 0.0 | 0.0 | 0.00 | 0.10 | 0.00 | 76 | 1007.8 | |
| 20260506152756 | 18 | 0.0 | 0.0 | 0.00 | 0.10 | 0.00 | 75 | 1007.8 | |
| 20260506152525 | 18 | 0.0 | 0.0 | 0.00 | 0.10 | 0.00 | 75 | 1007.8 | |
| 20260506151746 | 18 | 0.0 | 0.0 | 0.00 | 0.10 | 0.00 | 74 | 1007.8 | |
| 20260506151238 | 18 | 0.0 | 0.0 | 0.00 | 0.10 | 0.00 | 74 | 1007.8 | |
| 20260506150734 | 18 | 0.0 | 0.0 | 0.00 | 0.10 | 0.00 | 74 | 1007.9 | |
| 20260506150221 | 18 | 0.0 | 0.0 | 0.00 | 0.10 | 0.00 | 73 | 1007.8 | |
| 20260506145720 | 18 | 0.0 | 0.0 | 0.00 | 0.10 | 0.00 | 73 | 1007.7 | |
| 20260506145204 | 18 | 0.0 | 0.0 | 0.00 | 0.10 | 0.00 | 75 | 1007.7 | |
| 20260506144705 | 18 | 0.0 | 0.0 | 0.00 | 0.10 | 0.00 | 75 | 1007.6 | |
| 20260506144155 | 18 | 0.0 | 0.0 | 0.00 | 0.10 | 0.00 | 75 | 1007.9 | |
| 20260506143647 | 17 | 0.0 | 0.0 | 0.00 | 0.10 | 0.00 | 75 | 1007.9 | |
| 20260506143410 | 17 | 0.0 | 0.0 | 0.00 | 0.10 | 0.00 | 75 | 1007.7 | |
| 20260506142904 | 17 | 0.0 | 0.0 | 0.00 | 0.10 | 0.00 | 76 | 1007.7 | |
| 20260506142127 | 17 | 0.0 | 0.0 | 0.00 | 0.10 | 0.00 | 77 | 1007.8 | |
| 20260506141610 | 17 | 0.0 | 0.0 | 0.00 | 0.10 | 0.00 | 77 | 1007.7 | |
| 20260506141101 | 17 | 0.0 | 0.0 | 0.00 | 0.10 | 0.00 | 79 | 1007.8 | |
| 20260506140555 | 17 | 0.0 | 0.0 | 0.00 | 0.10 | 0.00 | 78 | 1007.8 | |
| 20260506140055 | 16 | 0.0 | 0.0 | 0.00 | 0.10 | 0.00 | 80 | 1007.6 | |
| 20260506135547 | 16 | 0.0 | 0.0 | 0.00 | 0.10 | 0.00 | 82 | 1007.6 | |
| 20260506135039 | 16 | 0.0 | 0.0 | 0.00 | 0.10 | 0.00 | 80 | 1007.7 | |
| 20260506134533 | 16 | 0.0 | 0.0 | 0.00 | 0.10 | 0.00 | 80 | 1007.9 | |
| 20260506134030 | 16 | 0.0 | 0.0 | 0.00 | 0.10 | 0.00 | 80 | 1008.0 | |
| 20260506133518 | 16 | 0.0 | 0.0 | 0.00 | 0.10 | 0.00 | 80 | 1008.1 | |
| 20260506133004 | 16 | 0.0 | 0.0 | 0.00 | 0.10 | 0.00 | 80 | 1008.3 | |
| 20260506132504 | 16 | 0.0 | 0.0 | 0.00 | 0.10 | 0.00 | 80 | 1008.2 | |
| 20260506131953 | 16 | 0.0 | 0.0 | 0.00 | 0.10 | 0.00 | 80 | 1008.2 | |
| 20260506131447 | 15 | 0.0 | 0.0 | 0.00 | 0.10 | 0.00 | 80 | 1008.3 | |
| 20260506130935 | 15 | 0.0 | 0.0 | 0.00 | 0.10 | 0.00 | 80 | 1008.2 | |
| 20260506130433 | 15 | 0.0 | 0.0 | 0.00 | 0.10 | 0.00 | 80 | 1008.1 | |
| 20260506125927 | 15 | 0.0 | 0.0 | 0.00 | 0.10 | 0.00 | 81 | 1008.1 | |
| 20260506125407 | 15 | 0.0 | 0.0 | 0.00 | 0.10 | 0.00 | 81 | 1008.3 | |
| 20260506124907 | 15 | 0.0 | 0.0 | 0.00 | 0.10 | 0.00 | 81 | 1008.3 | |
| 20260506124355 | 15 | 0.0 | 0.0 | 0.00 | 0.10 | 0.00 | 82 | 1008.3 | |
| 20260506123852 | 15 | 0.0 | 0.0 | 0.00 | 0.10 | 0.00 | 82 | 1008.0 | |
| 20260506123345 | 15 | 0.0 | 0.0 | 0.00 | 0.10 | 0.00 | 82 | 1008.2 | |
| 20260506122840 | 15 | 0.0 | 0.0 | 0.00 | 0.10 | 0.00 | 83 | 1008.2 | |
| 20260506122333 | 15 | 0.0 | 0.0 | 0.00 | 0.10 | 0.00 | 83 | 1008.1 | |
| 20260506122054 | 15 | 0.0 | 0.0 | 0.00 | 0.10 | 0.00 | 83 | 1008.2 | |
| 20260506121317 | 15 | 0.0 | 0.0 | 0.00 | 0.10 | 0.00 | 83 | 1008.2 | |
| 20260506120814 | 14 | 0.0 | 0.0 | 0.00 | 0.10 | 0.00 | 84 | 1008.3 | |
| 20260506120301 | 14 | 0.0 | 0.0 | 0.00 | 0.10 | 0.00 | 85 | 1008.4 | |
| 20260506115757 | 14 | 0.0 | 0.0 | 0.00 | 0.10 | 0.00 | 85 | 1008.5 | |
| 20260506115245 | 14 | 0.0 | 0.0 | 0.00 | 0.10 | 0.00 | 85 | 1008.5 | |
| 20260506114739 | 14 | 0.0 | 0.0 | 0.00 | 0.10 | 0.00 | 85 | 1008.3 | |
| 20260506114224 | 13 | 0.0 | 0.0 | 0.00 | 0.10 | 0.00 | 85 | 1008.3 | |
| 20260506113725 | 13 | 0.0 | 0.0 | 0.00 | 0.10 | 0.00 | 85 | 1008.4 | |
| 20260506113215 | 13 | 0.0 | 0.0 | 0.00 | 0.10 | 0.00 | 85 | 1008.5 | |
| 20260506112713 | 13 | 0.0 | 0.0 | 0.00 | 0.10 | 0.00 | 85 | 1008.6 | |
| 20260506112200 | 13 | 0.0 | 0.0 | 0.00 | 0.10 | 0.00 | 85 | 1008.5 | |
| 20260506111655 | 13 | 0.0 | 0.0 | 0.00 | 0.10 | 0.00 | 84 | 1008.6 | |
| 20260506111144 | 13 | 0.0 | 0.0 | 0.00 | 0.10 | 0.00 | 84 | 1008.5 | |
| 20260506110640 | 13 | 0.0 | 0.0 | 0.00 | 0.10 | 0.00 | 84 | 1008.3 | |
| 20260506110107 | 13 | 0.0 | 0.0 | 0.00 | 0.10 | 0.00 | 84 | 1008.6 | |
| 20260506105604 | 13 | 0.0 | 0.0 | 0.00 | 0.10 | 0.00 | 83 | 1008.6 | |
| 20260506105103 | 13 | 0.0 | 0.0 | 0.00 | 0.10 | 0.00 | 83 | 1008.6 | |
| 20260506104605 | 13 | 0.0 | 0.0 | 0.00 | 0.10 | 0.00 | 83 | 1008.9 | |
| 20260506104331 | 13 | 0.0 | 0.0 | 0.00 | 0.10 | 0.00 | 83 | 1008.9 | |
| 20260506103601 | 13 | 0.0 | 0.0 | 0.00 | 0.10 | 0.00 | 83 | 1008.6 | |
| 20260506103052 | 13 | 0.0 | 0.0 | 0.00 | 0.10 | 0.00 | 82 | 1008.9 | |
| 20260506102547 | 13 | 0.0 | 0.0 | 0.00 | 0.10 | 0.00 | 82 | 1009.0 | |
| 20260506102024 | 13 | 0.0 | 0.0 | 0.00 | 0.10 | 0.00 | 82 | 1008.8 | |
| 20260506101516 | 13 | 0.0 | 0.0 | 0.00 | 0.10 | 0.00 | 81 | 1008.4 | |
| 20260506101238 | 13 | 0.0 | 0.0 | 0.00 | 0.10 | 0.00 | 81 | 1008.4 | |
| 20260506101002 | 13 | 0.0 | 0.0 | 0.00 | 0.10 | 0.00 | 81 | 1008.5 | |
| 20260506100003 | 13 | 0.0 | 0.0 | 0.00 | 0.10 | 0.00 | 80 | 1008.5 | |
| 20260506095503 | 13 | 0.0 | 0.0 | 0.00 | 0.10 | 0.00 | 81 | 1008.4 | |
| 20260506094954 | 13 | 0.0 | 0.0 | 0.00 | 0.10 | 0.00 | 81 | 1008.2 | |
| 20260506094431 | 13 | 0.0 | 0.0 | 0.00 | 0.10 | 0.00 | 81 | 1008.1 | |
| 20260506093928 | 13 | 0.0 | 0.0 | 0.00 | 0.10 | 0.00 | 80 | 1008.3 | |
| 20260506093404 | 13 | 0.0 | 0.0 | 0.00 | 0.10 | 0.00 | 80 | 1008.4 | |
| 20260506092901 | 13 | 0.0 | 0.0 | 0.00 | 0.10 | 0.00 | 79 | 1008.3 | |
| 20260506092622 | 13 | 0.0 | 0.0 | 0.00 | 0.10 | 0.00 | 80 | 1008.1 | |
| 20260506091801 | 13 | 0.0 | 0.0 | 0.00 | 0.10 | 0.00 | 78 | 1008.2 | |
| 20260506091212 | 13 | 0.0 | 0.0 | 0.00 | 0.10 | 0.00 | 78 | 1008.2 | |
| 20260506090708 | 14 | 0.0 | 0.0 | 0.00 | 0.10 | 0.00 | 77 | 1008.3 | |
| 20260506090202 | 14 | 0.0 | 0.0 | 0.00 | 0.10 | 0.00 | 77 | 1008.3 | |
| 20260506085703 | 14 | 0.0 | 0.0 | 0.00 | 0.10 | 0.00 | 77 | 1008.4 | |
| 20260506085432 | 15 | 0.0 | 0.0 | 0.00 | 0.10 | 0.00 | 77 | 1008.3 | |
| 20260506084927 | 15 | 0.0 | 0.0 | 0.00 | 0.10 | 0.00 | 76 | 1008.3 | |
| 20260506084153 | 15 | 0.0 | 0.0 | 0.00 | 0.10 | 0.00 | 76 | 1008.4 | |
| 20260506083622 | 15 | 0.0 | 0.0 | 0.00 | 0.10 | 0.00 | 75 | 1008.3 | |
| 20260506083120 | 15 | 0.0 | 0.0 | 0.00 | 0.10 | 0.00 | 75 | 1008.4 | |
| 20260506082612 | 15 | 0.0 | 0.0 | 0.00 | 0.10 | 0.00 | 74 | 1008.5 | |
| 20260506082058 | 15 | 0.0 | 0.0 | 0.00 | 0.10 | 0.00 | 74 | 1008.4 | |
| 20260506081556 | 15 | 0.0 | 0.0 | 0.00 | 0.10 | 0.00 | 74 | 1008.4 | |
| 20260506081032 | 15 | 0.0 | 0.0 | 0.00 | 0.10 | 0.00 | 74 | 1008.4 | |
| 20260506080513 | 15 | 0.0 | 0.0 | 0.00 | 0.10 | 0.00 | 74 | 1008.2 | |
| 20260506073359 | 16 | 0.0 | 0.0 | 0.00 | 0.10 | 0.00 | 73 | 1008.3 | |
| 20260506072851 | 16 | 0.0 | 0.0 | 0.00 | 0.10 | 0.00 | 73 | 1008.3 | |
| 20260506072351 | 16 | 0.0 | 0.0 | 0.00 | 0.10 | 0.00 | 73 | 1008.2 | |
| 20260506071801 | 16 | 0.0 | 0.0 | 0.00 | 0.10 | 0.00 | 73 | 1008.2 | |
| 20260506071259 | 16 | 0.0 | 0.0 | 0.00 | 0.10 | 0.00 | 73 | 1008.3 | |
| 20260506070739 | 16 | 0.0 | 0.0 | 0.00 | 0.10 | 0.00 | 73 | 1008.4 | |
| 20260506070236 | 16 | 0.0 | 0.0 | 0.00 | 0.10 | 0.00 | 73 | 1008.4 | |
| 20260506062148 | 16 | 0.0 | 0.0 | 0.00 | 0.10 | 0.00 | 73 | 1008.0 | |
| 20260506061637 | 16 | 0.0 | 0.0 | 0.00 | 0.10 | 0.00 | 73 | 1007.9 | |
| 20260506061129 | 16 | 0.0 | 0.0 | 0.00 | 0.10 | 0.00 | 73 | 1007.9 | |
| 20260506060622 | 16 | 0.0 | 0.0 | 0.00 | 0.10 | 0.00 | 73 | 1007.8 | |
| 20260506060105 | 16 | 0.0 | 0.0 | 0.00 | 0.10 | 0.00 | 74 | 1007.9 | |
| 20260506050452 | 16 | 0.0 | 0.0 | 0.00 | 0.10 | 0.00 | 76 | 1008.0 | |
| 20260506044901 | 16 | 0.0 | 0.0 | 0.00 | 0.10 | 0.00 | 77 | 1007.9 | |
| 20260506044323 | 16 | 0.0 | 0.0 | 0.00 | 0.10 | 0.00 | 78 | 1008.0 | |
| 20260506043802 | 16 | 0.0 | 0.0 | 0.00 | 0.10 | 0.00 | 79 | 1008.0 | |
| 20260506043301 | 16 | 0.0 | 0.0 | 0.00 | 0.10 | 0.00 | 80 | 1008.0 | |
| 20260506042759 | 15 | 0.0 | 0.0 | 0.00 | 0.10 | 0.00 | 81 | 1008.0 | |
| 20260506042249 | 15 | 0.0 | 0.0 | 0.00 | 0.10 | 0.00 | 82 | 1008.1 | |
| 20260506041739 | 15 | 0.0 | 0.0 | 0.00 | 0.10 | 0.00 | 83 | 1008.2 | |
| 20260506041222 | 15 | 0.0 | 0.0 | 0.00 | 0.10 | 0.00 | 83 | 1008.0 | |
| 20260506040709 | 15 | 0.0 | 0.0 | 0.00 | 0.10 | 0.00 | 84 | 1008.0 | |
| 20260506040201 | 15 | 0.0 | 0.0 | 0.00 | 0.10 | 0.00 | 85 | 1007.9 | |
| 20260506035634 | 15 | 0.0 | 0.0 | 0.00 | 0.10 | 0.10 | 85 | 1007.9 | |
| 20260506035128 | 15 | 0.0 | 0.0 | 0.00 | 0.10 | 0.10 | 86 | 1007.7 | |
| 20260506034625 | 15 | 0.0 | 0.0 | 0.00 | 0.10 | 0.10 | 86 | 1008.0 | |
| 20260506034119 | 15 | 0.0 | 0.0 | 0.00 | 0.10 | 0.10 | 87 | 1008.0 | |
| 20260506033620 | 15 | 0.0 | 0.0 | 0.00 | 0.10 | 0.10 | 87 | 1007.9 | |
| 20260506033110 | 15 | 0.0 | 0.0 | 0.00 | 0.10 | 0.10 | 87 | 1007.8 | |
| 20260506032602 | 15 | 0.0 | 0.0 | 0.00 | 0.10 | 0.10 | 86 | 1008.1 | |
| 20260506032102 | 15 | 0.0 | 0.0 | 0.00 | 0.10 | 0.10 | 86 | 1008.1 | |
| 20260506031558 | 15 | 0.0 | 0.0 | 0.00 | 0.10 | 0.10 | 86 | 1008.1 | |
| 20260506031048 | 15 | 0.0 | 0.0 | 0.00 | 0.10 | 0.10 | 85 | 1008.1 |